www.pogodaiklimat.ru

Погода и климат >> Архив погоды >> Венгрия >> Мошонмадьяровар


ПОГОДА в Мошонмадьяроваре

  • Прогноз погоды в Мошонмадьяроваре
  • Монитор погоды в Мошонмадьяроваре

АРХИВ ПОГОДЫ в Мошонмадьяроваре

Время (UTC), дата Ветер
(напр.,м/с)
 
Видим.   Явления Облачность Т
(С)
Тd
(С)
f
(%)
Тe
(С)
Тes
(С)
Комфортность P
(гПа)
Po
(гПа)
Тmin
(С)
Tmax
(С)
R
(мм)
R24
(мм)
S
(см)
19 10.06 ЮВ 1 н/о н/о +25.3 +18.3 65 +30 +30 душно 1012.6 998.6
20 10.06 В 1 н/о н/о +23.0 +18.5 76 +29 +29 очень
душно
1013.1 999.0
21 10.06 ЮВ 1 н/о н/о +22.5 +18.5 78 +28 +28 душно 1012.8 998.7
22 10.06 ЮВ 2 н/о н/о +22.6 +17.9 75 +28 +28 душно 1012.5 998.4
23 10.06 ЮВ 2 н/о н/о +21.8 +17.6 77 +26 +26 душно 1012.6 998.5
00 11.06 ЮВ 3 н/о н/о +21.7 +17.3 76 +26 +26 душно 1012.4 998.3
01 11.06 ЮВ 3 н/о н/о +21.5 +17.3 77 +26 +26 душно 1012.2 998.1
02 11.06 ЮВ 2 н/о н/о +20.6 +17.2 81 +25 +25 комфорт 1011.9 997.7
03 11.06 В 2 н/о н/о +19.9 +17.1 84 +23 +23 комфорт 1011.8 997.6
04 11.06 В 2 н/о н/о +20.0 +17.2 84 +23 +23 комфорт 1012.1 997.9
05 11.06 В 3 н/о н/о +22.2 +18.2 78 +27 +27 душно 1011.8 997.7
06 11.06 В 3 н/о н/о +24.4 +19.2 73 +29 +29 душно 1012.0 998.0 +19.9
07 11.06 В 3 н/о н/о +26.4 +20.0 68 +32 +32 очень
душно
1012.4 998.5
08 11.06 В 3
{7}
н/о н/о +28.1 +20.4 63 +35 +35 очень
душно
1012.3 998.5
09 11.06 ЮВ 4
{8}
н/о н/о +29.0 +19.9 58 +35 +35 очень
душно
1012.1 998.3
10 11.06 ЮВ 4
{10}
н/о н/о +30.2 +19.9 54 +36 +36 очень
душно
1011.9 998.2
11 11.06 Ю 5
{9}
н/о н/о +30.8 +18.5 48 +36 +36 очень
душно
1011.9 998.2
12 11.06 ЮВ 4
{9}
н/о н/о +31.2 +19.9 51 +37 +37 очень
душно
1011.5 997.8
13 11.06 ЮВ 4
{8}
н/о н/о +31.6 +19.6 49 +37 +37 очень
душно
1011.2 997.5
14 11.06 ЮВ 4
{8}
н/о н/о +30.8 +18.2 47 +35 +35 очень
душно
1011.0 997.3
15 11.06 ЮВ 4
{8}
н/о н/о +30.2 +18.0 48 +35 +35 очень
душно
1010.5 996.8
16 11.06 ЮВ 4
{8}
н/о н/о +30.3 +17.0 45 +34 +34 очень
душно
1010.7 997.0
17 11.06 ЮВ 3
{7}
н/о н/о +29.4 +17.9 50 +34 +34 очень
душно
1011.3 997.5
18 11.06 ЮВ 3 н/о н/о +26.9 +17.9 58 +31 +31 душно 1011.8 997.9 +32.1
19 11.06 В 2 н/о н/о +25.3 +18.0 64 +30 +30 душно 1011.8 997.8
20 11.06 ЮВ 2 н/о н/о +24.6 +17.3 64 +29 +29 душно 1012.5 998.5
21 11.06 ЮВ 2 н/о н/о +24.1 +17.4 66 +28 +28 душно 1012.5 998.5
22 11.06 ЮВ 3 н/о н/о +23.6 +17.1 67 +27 +27 жарко 1012.5 998.4
23 11.06 Ю 3 н/о н/о +23.2 +17.2 69 +28 +28 душно 1012.0 997.9
00 12.06 ЮВ 3 н/о н/о +21.9 +17.1 74 +26 +26 душно 1011.6 997.5
01 12.06 Ю 3
{7}
н/о н/о +22.0 +16.9 73 +26 +26 душно 1011.2 997.1
02 12.06 ЮВ 2 н/о н/о +20.4 +16.8 80 +24 +24 комфорт 1010.9 996.7
03 12.06 В 2 н/о н/о +20.2 +16.8 81 +24 +24 комфорт 1011.3 997.1
04 12.06 ЮВ 2 н/о н/о +20.7 +17.1 80 +25 +25 комфорт 1012.3 998.1
05 12.06 ЮВ 2 н/о н/о +22.3 +17.4 74 +27 +27 душно 1012.3 998.2
06 12.06 ЮВ 4
{7}
н/о н/о +24.2 +17.5 66 +28 +28 душно 1012.4 998.4 +19.8
07 12.06 ЮВ 4
{7}
н/о н/о +25.6 +18.3 64 +30 +30 душно 1012.6 998.6
08 12.06 ЮВ 4
{7}
н/о н/о +27.3 +19.6 63 +33 +33 очень
душно
1012.5 998.6
09 12.06 ЮВ 3
{8}
н/о н/о +28.7 +18.8 55 +34 +34 очень
душно
1012.5 998.7
10 12.06 ЮВ 4
{9}
н/о н/о +29.4 +18.2 51 +34 +34 очень
душно
1012.3 998.5
11 12.06 ЮВ 4
{9}
н/о н/о +30.3 +19.0 51 +36 +36 очень
душно
1011.7 998.0
12 12.06 ЮВ 5
{10}
н/о н/о +30.6 +17.7 46 +35 +35 очень
душно
1011.5 997.8
13 12.06 ЮВ 5
{9}
н/о н/о +30.4 +18.5 49 +35 +35 очень
душно
1011.0 997.3
14 12.06 Ю 4
{10}
н/о н/о +31.4 +18.4 46 +36 +36 очень
душно
1010.9 997.2
15 12.06 ЮВ 4
{9}
н/о н/о +30.9 +18.9 49 +36 +36 очень
душно
1010.5 996.8
16 12.06 ЮВ 4
{9}
н/о н/о +30.3 +18.4 49 +35 +35 очень
душно
1010.2 996.5
17 12.06 ЮВ 4
{7}
н/о н/о +29.0 +18.2 52 +34 +34 очень
душно
1010.2 996.4
18 12.06 ЮВ 4
{8}
н/о н/о +27.3 +18.0 57 +32 +32 очень
душно
1010.4 996.5 +31.4
19 12.06 ЮВ 2 н/о н/о +25.4 +18.1 64 +30 +30 душно 1010.9 997.0
20 12.06 ЮВ 3 н/о н/о +24.9 +18.1 66 +29 +29 душно 1011.3 997.3
21 12.06 В 2 н/о н/о +23.6 +18.0 71 +28 +28 душно 1011.6 997.6
22 12.06 ЮВ 2 н/о н/о +22.6 +17.9 75 +28 +28 душно 1011.8 997.7
23 12.06 В 1 н/о н/о +21.2 +17.8 81 +25 +25 комфорт 1012.3 998.1
00 13.06 В 2 н/о н/о +21.5 +17.3 77 +26 +26 душно 1011.8 997.7
01 13.06 В 2 н/о н/о +21.6 +16.8 74 +26 +26 душно 1011.8 997.7
02 13.06 В 3 н/о н/о +21.2 +16.4 74 +25 +25 комфорт 1011.7 997.5
03 13.06 В 3 н/о н/о +20.9 +16.3 75 +25 +25 комфорт 1011.7 997.5
04 13.06 В 2 н/о н/о +21.1 +16.5 75 +25 +25 комфорт 1011.9 997.7
05 13.06 В 2 н/о н/о +22.8 +17.3 71 +28 +28 душно 1012.1 998.0
06 13.06 ЮВ 3 н/о н/о +25.0 +19.4 71 +30 +30 душно 1012.4 998.4 +20.8
07 13.06 ЮВ 2 н/о н/о +26.9 +19.3 63 +32 +32 очень
душно
1012.5 998.6
08 13.06 В 2 н/о н/о +27.7 +19.0 59 +33 +33 очень
душно
1012.5 998.6
09 13.06 В 2 н/о н/о +28.0 +19.5 60 +34 +34 очень
душно
1012.5 998.7
10 13.06 Ю 2 н/о н/о +29.6 +20.2 57 +36 +36 очень
душно
1012.4 998.6
11 13.06 ЮВ 2 н/о н/о +30.7 +20.9 56 +38 +38 очень
душно
1011.9 998.2
12 13.06 ЮВ 3
{7}
н/о н/о +31.6 +20.5 52 +39 +39 очень
душно
1011.6 997.9
13 13.06 Ю 4
{8}
н/о н/о +32.6 +19.1 45 +38 +38 очень
душно
1011.2 997.6
14 13.06 Ю 4
{9}
н/о н/о +32.7 +18.1 42 +37 +37 очень
душно
1011.0 997.4
15 13.06 ЮВ 4
{9}
н/о н/о +31.7 +18.3 45 +36 +36 очень
душно
1010.9 997.2
16 13.06 Ю 5
{9}
н/о н/о +31.4 +20.0 51 +38 +38 очень
душно
1010.6 996.9
17 13.06 Ю 4
{9}
н/о н/о +30.6 +18.7 49 +36 +36 очень
душно
1010.8 997.1
18 13.06 Ю 4 н/о н/о +29.8 +19.2 53 +35 +35 очень
душно
1010.6 996.9 +33.0
19 13.06 ЮВ 2
{7}
н/о н/о +26.8 +18.1 59 +31 +31 душно 1011.6 997.7
20 13.06 ЮВ 2 н/о н/о +25.0 +17.7 64 +29 +29 душно 1012.1 998.1
21 13.06 ЮВ 2 н/о н/о +24.1 +18.1 69 +28 +28 душно 1012.7 998.7
22 13.06 ЮВ 3 н/о н/о +23.0 +17.9 73 +28 +28 душно 1013.2 999.1
23 13.06 ЮВ 3 н/о н/о +22.9 +15.7 64 +27 +27 душно 1013.3 999.2
00 14.06 Ю 1 н/о н/о +21.5 +15.8 70 +25 +25 комфорт 1013.5 999.3
01 14.06 Ю 1 н/о н/о +20.7 +15.7 73 +25 +25 комфорт 1013.5 999.3
02 14.06 СЗ 1 н/о н/о +18.3 +15.4 83 +20 +20 1014.5 1000.2
03 14.06 З 3 н/о н/о +19.3 +16.3 83 +21 +21 комфорт 1014.8 1000.5
04 14.06 СЗ 3 н/о н/о +20.2 +17.6 85 +24 +24 комфорт 1015.5 1001.2
05 14.06 СЗ 5
{8}
н/о н/о +20.8 +16.8 78 +24 +24 комфорт 1015.9 1001.7
06 14.06 СЗ 3
{7}
н/о н/о +22.6 +17.9 75 +28 +28 душно 1016.7 1002.5 +17.8
07 14.06 СЗ 5
{8}
н/о н/о +23.9 +18.5 72 +28 +28 душно 1017.2 1003.1
08 14.06 СЗ 4
{7}
н/о н/о +25.7 +19.1 67 +31 +31 очень
душно
1017.4 1003.4
09 14.06 С 3
{7}
н/о н/о +27.5 +17.4 54 +32 +32 очень
душно
1017.5 1003.6
10 14.06 С 3 н/о н/о +28.5 +18.6 55 +34 +34 очень
душно
1017.5 1003.6
11 14.06 н/о н/о +29.7 +19.1 53 1017.4 1003.6
12 14.06 СВ 2 н/о н/о +30.2 +16.6 44 +34 +34 очень
душно
1017.0 1003.2
13 14.06 В 2 н/о н/о +30.9 +16.9 43 +34 +34 душно 1016.7 1002.9
14 14.06 В 2 н/о н/о +31.0 +17.0 43 +35 +35 очень
душно
1016.4 1002.6
15 14.06 В 1 н/о н/о +31.6 +17.9 44 +36 +36 очень
душно
1016.1 1002.4
16 14.06 В 1 н/о н/о +31.3 +16.5 41 +34 +34 душно 1015.6 1001.9
17 14.06 ЮВ 2 н/о н/о +30.5 +17.6 46 +35 +35 очень
душно
1015.4 1001.6
18 14.06 В 1 н/о н/о +29.1 +18.2 52 +34 +34 очень
душно
1015.5 1001.7 +32.0
19 14.06 В 1 н/о н/о +25.5 +18.2 64 +30 +30 душно 1015.7 1001.7
20 14.06 ЮВ 1 н/о н/о +23.3 +18.8 76 +30 +30 очень
душно
1016.3 1002.2
21 14.06 В 1 н/о н/о +22.4 +18.6 79 +28 +28 душно 1016.1 1001.9
22 14.06 ЮВ 2 н/о н/о +22.5 +18.5 78 +28 +28 душно 1016.0 1001.8
23 14.06 ЮВ 2 н/о н/о +22.6 +18.4 77 +28 +28 душно 1015.4 1001.3
00 15.06 ЮВ 2 н/о н/о +22.1 +18.7 81 +27 +27 душно 1015.3 1001.1
01 15.06 ЮВ 1 н/о н/о +20.6 +18.4 87 +26 +26 душно 1015.0 1000.8
02 15.06 В 1 н/о н/о +20.4 +18.5 89 +25 +25 комфорт 1014.9 1000.7
03 15.06 ЮВ 2 н/о н/о +20.2 +18.5 90 +24 +24 комфорт 1014.7 1000.5
04 15.06 ЮВ 2 н/о н/о +20.9 +18.7 87 +26 +26 душно 1014.5 1000.3
05 15.06 В 2 н/о н/о +23.4 +19.3 78 +30 +30 очень
душно
1014.1 1000.0
06 15.06 ЮВ 2 н/о н/о +25.6 +20.2 72 +32 +32 очень
душно
1014.0 1000.0 +20.1
07 15.06 ЮВ 3 н/о н/о +27.6 +21.6 70 +35 +35 очень
душно
1014.0 1000.1
08 15.06 Ю 4
{7}
н/о н/о +29.6 +20.7 59 +37 +37 очень
душно
1013.8 1000.0
09 15.06 Ю 5
{9}
н/о н/о +29.1 +19.7 57 +35 +35 очень
душно
1013.8 1000.0
10 15.06 Ю 4
{9}
н/о н/о +28.6 +19.2 57 +34 +34 очень
душно
1013.6 999.8
11 15.06 Ю 4
{9}
н/о н/о +30.7 +20.9 56 +38 +38 очень
душно
1013.1 999.4
12 15.06 Ю 5
{8}
н/о н/о +31.4 +19.4 49 +37 +37 очень
душно
1012.8 999.1
13 15.06 Ю 5
{9}
н/о н/о +32.0 +18.2 44 +37 +37 очень
душно
1012.1 998.4
14 15.06 Ю 5
{9}
н/о н/о +32.3 +19.6 47 +38 +38 очень
душно
1011.7 998.1
15 15.06 Ю 3
{9}
н/о н/о +32.6 +19.8 47 +39 +39 очень
душно
1011.3 997.7
16 15.06 ЮВ 3
{8}
н/о н/о +30.7 +19.7 52 +37 +37 очень
душно
1010.7 997.0
17 15.06 Ю 3
{7}
н/о н/о +29.9 +20.2 56 +36 +36 очень
душно
1010.4 996.7
18 15.06 Ю 3 н/о н/о +29.1 +20.5 60 +36 +36 очень
душно
1010.8 997.0 +32.8
19 15.06 ЮВ 2 н/о н/о +27.3 +19.4 62 +33 +33 очень
душно
1011.0 997.1
20 15.06 ЮВ 2 н/о н/о +26.0 +19.4 67 +31 +31 очень
душно
1011.2 997.3
21 15.06 Ю 3 н/о н/о +26.1 +20.0 69 +32 +32 очень
душно
1011.4 997.5
22 15.06 ЮЗ 1 н/о н/о +24.3 +20.0 77 +30 +30 очень
душно
1012.2 998.2
23 15.06 З 1 н/о н/о +23.2 +20.2 83 +30 +30 очень
душно
1012.3 998.2
00 16.06 З 2 н/о н/о +23.8 +17.1 66 +28 +28 душно 1012.2 998.2
01 16.06 С 2 н/о н/о +22.5 +15.8 66 +27 +27 душно 1012.2 998.1
02 16.06 СЗ 3 н/о н/о +21.3 +16.1 72 +25 +25 комфорт 1011.9 997.7
03 16.06 СЗ 3
{7}
н/о н/о +21.1 +15.9 72 +24 +24 комфорт 1012.2 998.0
04 16.06 СЗ 3 н/о н/о +20.7 +16.9 79 +25 +25 комфорт 1012.2 998.0
05 16.06 СЗ 4 н/о н/о +20.5 +16.1 76 +24 +24 комфорт 1013.1 998.9
06 16.06 СЗ 5
{9}
н/о н/о +21.5 +16.5 73 +25 +25 комфорт 1013.9 999.7 +20.3
07 16.06 СЗ 6
{11}
н/о н/о +22.6 +17.1 71 +27 +27 душно 1014.4 1000.3
08 16.06 СЗ 7
{13}
н/о н/о +24.7 +17.2 63 +29 +29 душно 1014.6 1000.6
09 16.06 СЗ 6
{12}
н/о н/о +25.7 +17.9 62 +30 +30 душно 1015.5 1001.5
10 16.06 СЗ 6
{11}
н/о н/о +23.4 +16.9 67 +29 +29 душно 1016.3 1002.2
11 16.06 С 5
{12}
н/о н/о +24.3 +19.8 76 +30 +30 очень
душно
1015.6 1001.5
12 16.06 СЗ 7
{13}
н/о н/о +25.2 +17.7 63 +29 +29 душно 1015.7 1001.7 1
13 16.06 СЗ 8
{13}
н/о н/о +25.7 +17.4 60 +30 +30 душно 1015.2 1001.2
14 16.06 СЗ 7
{13}
н/о н/о +26.2 +17.6 59 +30 +30 душно 1015.2 1001.2
15 16.06 СЗ 9
{14}
н/о н/о +25.0 +17.2 62 +29 +29 душно 1015.1 1001.1
16 16.06 СЗ 6
{14}
н/о н/о +24.4 +17.6 66 +28 +28 душно 1015.5 1001.4
17 16.06 СЗ 6
{12}
н/о н/о +23.9 +16.7 64 +27 +27 жарко 1016.2 1002.1
18 16.06 СЗ 4
{11}
н/о н/о +22.9 +16.9 69 +28 +28 душно 1016.1 1002.0 +27.0 1
19 16.06 СЗ 4
{11}
н/о н/о +22.2 +15.8 67 +26 +26 душно 1016.2 1002.0
20 16.06 СЗ 5
{9}
н/о н/о +21.8 +15.4 67 +25 +25 комфорт 1018.1 1003.9
21 16.06 СЗ 6
{11}
н/о н/о +21.0 +14.4 66 +24 +24 комфорт 1017.6 1003.4
22 16.06 СЗ 6
{10}
н/о н/о +20.2 +13.7 66 +22 +22 комфорт 1018.1 1003.8
23 16.06 СЗ 6
{10}
н/о н/о +19.4 +13.1 67 +20 +20 1018.1 1003.8
00 17.06 СЗ 4
{9}
н/о н/о +19.0 +13.6 71 +20 +20 1018.7 1004.3
01 17.06 СЗ 4
{7}
н/о н/о +18.5 +13.8 74 +19 +19 1018.3 1003.9
02 17.06 СЗ 4
{7}
н/о н/о +17.9 +13.8 77 +18 +18 1018.1 1003.7
03 17.06 СЗ 4
{7}
н/о н/о +18.1 +13.8 76 +18 +18 1018.5 1004.1
04 17.06 СЗ 4
{8}
н/о н/о +17.7 +13.8 78 +17 +17 1018.4 1004.0
05 17.06 СЗ 5
{9}
н/о н/о +18.6 +14.1 75 +19 +19 1018.6 1004.2
06 17.06 СЗ 5
{9}
н/о н/о +20.5 +15.1 71 +23 +23 комфорт 1018.5 1004.2 +17.7
07 17.06 СЗ 4
{7}
н/о н/о +22.4 +16.0 67 +27 +27 душно 1018.6 1004.4
08 17.06 С 3 н/о н/о +23.4 +16.7 66 +28 +28 душно 1018.5 1004.4
09 17.06 С 4
{8}
н/о н/о +23.9 +15.4 59 +27 +27 жарко 1018.5 1004.4
10 17.06 С 3
{7}
н/о н/о +25.7 +16.0 55 +29 +29 душно 1018.3 1004.3
11 17.06 С 3
{7}
н/о н/о +26.9 +18.2 59 +32 +32 очень
душно
1018.1 1004.1
12 17.06 С 3
{7}
н/о н/о +27.2 +15.9 50 +30 +30 душно 1017.8 1003.8
13 17.06 С 3 н/о н/о +26.8 +16.1 52 +30 +30 душно 1017.6 1003.6
14 17.06 СВ 4
{7}
н/о н/о +27.0 +16.0 51 +30 +30 душно 1017.2 1003.2
15 17.06 В 3
{8}
н/о н/о +25.5 +17.7 62 +30 +30 душно 1017.2 1003.2
16 17.06 В 2 н/о н/о +25.8 +17.2 59 +30 +30 душно 1016.9 1002.9
17 17.06 СВ 2 н/о н/о +24.6 +16.8 62 +28 +28 душно 1017.0 1002.9
18 17.06 СВ 1 н/о н/о +23.7 +16.2 63 +27 +27 жарко 1017.1 1003.0 +27.6

 

Местоположение метеостанции Мошонмадьяровар (Венгрия): широта 47.88 долгота 17.28 высота над уровнем моря 122 м.

В архиве по умолчанию представлена погода в Мошонмадьяроваре за последнюю неделю. Архивные данные за месяц целиком и за предыдущие месяцы, начиная с января 2011 года, Вы можете получить, выбрав интересующий диапазон дат из раскрывающегося списка и нажав кнопку "Ввод!".


*Определитесь, кто Вы:
робот инопланетянин человек

Внимание! Время в таблицах - всемирное. Для получения местного времени необходимо прибавить поправку, которая равна 1 ч.

Смотрите также архив погоды в соседних городах и на ближайших метеорологических станциях:

Погода в Андау (Австрия) (22 км)
Погода в Нойзидль-ам-Зе (Австрия) (33 км)
Погода в Братислава-Колибе (Словакия) (34 км)
Погода в Нойзидль-ам-Зе (Австрия) (34 км)
Погода в Дьере (Венгрия) (35 км)
Погода в Братиславе (Словакия) (36 км)
Погода в Малом Яровнику (Словакия) (42 км)
Погода в Пер аэропорту (Венгрия) (49 км)
Погода в Шопроне (Венгрия) (55 км)
Погода в Айзенштадте (Австрия) (56 км)

Пояснения к столбцам:

Ветер - указаны скорость ветра в м/с - средняя за 10 мин, порывы в срок и между сроками (в фигурных скобках) и направление, откуда дует ветер: С - северный, СВ - северо-восточный, В - восточный, ЮВ - юго-восточный, Ю - южный, ЮЗ - юго-западный, З - западный, СЗ - северо-западный.
Видимость - горизонтальная дальность видимости в метрах или километрах. При видимости от 1 до 10 км при отсутствии осадков обычно наблюдается дымка, при ухудшении видимости до 1 км и менее - туман. В сухую погоду видимость может ухудшаться дымом, пылью или мглою.
Явления - указаны атмосферные явления, наблюдавшиеся в срок или в последний час перед сроком; фигурными скобками обозначены явления, наблюдавшиеся между сроками (за 1-3 часа до срока); квадратными скобками обозначены град или гололедные отложения с указанием их диаметра в мм.
Облачность - указаны через наклонную черту общая и нижняя облачность в баллах и высота нижней границы облаков в метрах; квадратными скобками обозначены формы облаков: Ci - перистые, Cs - перисто-слоистые, Cc - перисто-кучевые, Ac - высококучевые, As - высокослоистые, Sc - слоисто-кучевые, Ns - слоисто-дождевые, Cu - кучевые, Cb - кучево-дождевые. Подробнее классификацию облаков см. в Атласе облаков (PDF).
T - Температура воздуха - температура, измеренная на высоте 2 м над землей.
Td - Температура точки росы - температура, при понижении до которой содержащийся в воздухе водяной пар достигнет насыщения.
f - Относительная влажность воздуха - влажноcть воздуха, измеренная на высоте 2 м над землей.
Te - Эффективная температура - температура, которую ощущает одетый по сезону человек в тени. Характеристика душности погоды. При расчете учитывается влияние влажности воздуха и скорости ветра на теплоощущения человека.
Tes - Эффективная температура на солнце - температура, которую ощущает человек, с поправкой на солнечный нагрев. Характеристика знойности погоды. Зависит от высоты солнца над горизонтом, облачности и скорости ветра. Ночью, в пасмурную погоду, а также при ветре 12 м/с и более поправка равна нулю.
P - Атмосферное давление - приведенное к уровню моря атмосферное давление.
Po - Атмосферное давление - измеренное на уровне метеостанции атмосферное давление.
Tmin - Минимальная температура - минимум температуры воздуха на высоте 2 м над землей.
Tmax - Максимальная температура - максимум температуры воздуха на высоте 2 м над землей.
R - Количество осадков - Количество выпавших осадков за период времени, мм. При наведении курсора мыши на число - период времени, за который выпало указанное количество осадков.
R24 - Количество осадков - Количество выпавших осадков за 24 часа, мм.
S - Снежный покров - Высота снежного покрова, см. При наведении курсора мыши на число - состояние снежного покрова и степень покрытия местности в баллах.